When you browse on this site, cookies collect data to enhance your experience and personalize the content and advertising you see.
Visit our Privacy Policy to learn more. By continuing to use the site, you agree to this use of cookies and data.
  • en Suisse
  • Liste des pays
  • À 7 jours
  • Température de l'eau
  • Carte météo
  • Widgets météo
  • user-avatar
    Se connecter

    Météo par heure à Salta

    Ce jour, 19 Octobre, Samedi

    Heure Température Précipitation Vent Pression Humidité
    00:00 +14°C° 0 mm 1 m/s 653 mmHg 79%
    01:00 +14°C° 0 mm 1 m/s 653 mmHg 79%
    02:00 +14°C° 0 mm 1 m/s 653 mmHg 79%
    03:00 +14°C° 0 mm 1 m/s 653 mmHg 80%
    04:00 +14°C° 0 mm 1 m/s 653 mmHg 82%
    05:00 +14°C° 0 mm 1 m/s 653 mmHg 83%
    06:00 +14°C° 0 mm 1 m/s 653 mmHg 79%
    07:00 +15°C° 0 mm 1 m/s 654 mmHg 75%
    08:00 +16°C° 0 mm 1 m/s 654 mmHg 71%
    09:00 +16°C° 0 mm 1 m/s 654 mmHg 68%
    10:00 +18°C° 0 mm 1 m/s 654 mmHg 66%
    11:00 +18°C° 0 mm 2 m/s 654 mmHg 63%
    12:00 +18°C° 0 mm 2 m/s 653 mmHg 61%
    13:00 +19°C° 0 mm 2 m/s 652 mmHg 58%
    14:00 +20°C° 0 mm 2 m/s 651 mmHg 56%
    15:00 +19°C° 0 mm 2 m/s 651 mmHg 59%
    16:00 +18°C° 0 mm 2 m/s 650 mmHg 61%
    17:00 +19°C° 0 mm 1 m/s 650 mmHg 63%
    18:00 +18°C° 0 mm 1 m/s 650 mmHg 67%
    19:00 +18°C° 0 mm 1 m/s 650 mmHg 70%
    20:00 +16°C° 0 mm 1 m/s 651 mmHg 73%
    21:00 +16°C° 0 mm 1 m/s 651 mmHg 75%
    22:00 +15°C° 0 mm 1 m/s 651 mmHg 76%
    23:00 +15°C° 0 mm 1 m/s 651 mmHg 77%

    Demain, 20 Octobre, Dimanche

    Heure Température Précipitation Vent Pression Humidité
    00:00 +15°C° 0 mm 1 m/s 650 mmHg 78%
    01:00 +15°C° 0 mm 1 m/s 650 mmHg 78%
    02:00 +14°C° 0 mm 1 m/s 649 mmHg 79%
    03:00 +14°C° 0 mm 1 m/s 649 mmHg 81%
    04:00 +13°C° 0 mm 1 m/s 649 mmHg 83%
    05:00 +12°C° 0 mm 0 m/s 649 mmHg 85%
    06:00 +13°C° 0 mm 0 m/s 649 mmHg 79%
    07:00 +16°C° 0 mm 1 m/s 650 mmHg 73%
    08:00 +18°C° 0 mm 1 m/s 650 mmHg 67%
    09:00 +20°C° 0 mm 1 m/s 650 mmHg 61%
    10:00 +21°C° 0 mm 1 m/s 650 mmHg 55%
    11:00 +23°C° 0 mm 2 m/s 650 mmHg 49%
    12:00 +24°C° 0 mm 2 m/s 650 mmHg 48%
    13:00 +24°C° 0 mm 3 m/s 649 mmHg 47%
    14:00 +25°C° 0 mm 3 m/s 649 mmHg 46%
    15:00 +24°C° 0 mm 3 m/s 649 mmHg 51%
    16:00 +21°C° 0 mm 3 m/s 649 mmHg 57%
    17:00 +20°C° 0 mm 3 m/s 649 mmHg 62%
    18:00 +19°C° 0 mm 3 m/s 649 mmHg 66%
    19:00 +19°C° 0 mm 2 m/s 650 mmHg 70%
    20:00 +18°C° 0 mm 2 m/s 651 mmHg 74%
    21:00 +17°C° 0 mm 2 m/s 651 mmHg 76%
    22:00 +17°C° 0 mm 2 m/s 652 mmHg 78%
    23:00 +16°C° 0 mm 2 m/s 652 mmHg 80%

    Après-demain, 21 Octobre, Lundi

    Heure Température Précipitation Vent Pression Humidité
    00:00 +16°C° 0 mm 2 m/s 652 mmHg 80%
    01:00 +16°C° 0 mm 1 m/s 651 mmHg 79%
    02:00 +16°C° 0 mm 1 m/s 651 mmHg 79%
    03:00 +16°C° 0 mm 1 m/s 651 mmHg 80%
    04:00 +15°C° 0 mm 1 m/s 651 mmHg 80%
    05:00 +15°C° 0 mm 1 m/s 651 mmHg 81%
    06:00 +16°C° 0 mm 0 m/s 652 mmHg 69%
    07:00 +17°C° 0 mm 0 m/s 653 mmHg 57%
    08:00 +19°C° 0 mm 0 m/s 654 mmHg 45%
    09:00 +22°C° 0 mm 1 m/s 654 mmHg 41%
    10:00 +24°C° 0 mm 2 m/s 654 mmHg 37%
    11:00 +25°C° 0 mm 3 m/s 654 mmHg 33%
    12:00 +25°C° 0 mm 3 m/s 654 mmHg 35%
    13:00 +25°C° 0 mm 4 m/s 653 mmHg 37%
    14:00 +23°C° 0 mm 4 m/s 652 mmHg 40%
    15:00 +24°C° 0 mm 3 m/s 652 mmHg 42%
    16:00 +23°C° 0 mm 2 m/s 651 mmHg 45%
    17:00 +22°C° 0 mm 1 m/s 651 mmHg 48%
    18:00 +21°C° 0 mm 1 m/s 651 mmHg 50%
    19:00 +20°C° 0 mm 1 m/s 651 mmHg 52%
    20:00 +19°C° 0 mm 1 m/s 652 mmHg 54%
    21:00 +19°C° 0 mm 1 m/s 652 mmHg 54%
    22:00 +19°C° 0 mm 1 m/s 653 mmHg 55%
    23:00 +19°C° 0 mm 1 m/s 653 mmHg 55%

    22 Octobre, Mardi

    Heure Température Précipitation Vent Pression Humidité
    00:00 +18°C° 0 mm 1 m/s 653 mmHg 56%
    01:00 +18°C° 0 mm 1 m/s 652 mmHg 56%
    02:00 +16°C° 0 mm 1 m/s 652 mmHg 57%
    03:00 +16°C° 0 mm 1 m/s 652 mmHg 59%
    04:00 +15°C° 0 mm 1 m/s 652 mmHg 61%
    05:00 +14°C° 0 mm 1 m/s 652 mmHg 62%
    06:00 +15°C° 0 mm 1 m/s 652 mmHg 59%
    07:00 +18°C° 0 mm 1 m/s 652 mmHg 56%
    08:00 +18°C° 0 mm 2 m/s 653 mmHg 52%
    09:00 +19°C° 0 mm 2 m/s 652 mmHg 49%
    10:00 +20°C° 0 mm 3 m/s 652 mmHg 45%
    11:00 +22°C° 0 mm 4 m/s 652 mmHg 41%
    12:00 +23°C° 0 mm 4 m/s 651 mmHg 39%
    13:00 +25°C° 0 mm 4 m/s 651 mmHg 37%
    14:00 +25°C° 0 mm 4 m/s 650 mmHg 36%
    15:00 +25°C° 0 mm 3 m/s 650 mmHg 36%
    16:00 +25°C° 0 mm 3 m/s 649 mmHg 37%
    17:00 +25°C° 0 mm 3 m/s 649 mmHg 37%
    18:00 +23°C° 0 mm 2 m/s 649 mmHg 44%
    19:00 +20°C° 0 mm 2 m/s 649 mmHg 50%
    20:00 +19°C° 0 mm 1 m/s 649 mmHg 57%
    21:00 +18°C° 0 mm 1 m/s 649 mmHg 59%
    22:00 +15°C° 0 mm 0 m/s 650 mmHg 61%
    23:00 +15°C° 0 mm 0 m/s 650 mmHg 64%

    23 Octobre, Mercredi

    Heure Température Précipitation Vent Pression Humidité
    00:00 +14°C° 0 mm 0 m/s 650 mmHg 65%
    01:00 +14°C° 0 mm 0 m/s 649 mmHg 67%
    02:00 +14°C° 0 mm 0 m/s 649 mmHg 69%
    03:00 +13°C° 0 mm 0 m/s 649 mmHg 70%
    04:00 +13°C° 0 mm 0 m/s 649 mmHg 71%
    05:00 +12°C° 0 mm 0 m/s 649 mmHg 72%
    06:00 +15°C° 0 mm 1 m/s 650 mmHg 65%
    07:00 +18°C° 0 mm 1 m/s 651 mmHg 57%
    08:00 +20°C° 0 mm 1 m/s 652 mmHg 50%
    09:00 +21°C° 0 mm 2 m/s 651 mmHg 46%
    10:00 +22°C° 0 mm 3 m/s 651 mmHg 41%
    11:00 +25°C° 0 mm 3 m/s 651 mmHg 36%
    12:00 +25°C° 0 mm 3 m/s 651 mmHg 34%
    13:00 +26°C° 0 mm 3 m/s 650 mmHg 32%
    14:00 +27°C° 0 mm 3 m/s 650 mmHg 29%
    15:00 +27°C° 0 mm 3 m/s 649 mmHg 30%
    16:00 +26°C° 0 mm 3 m/s 649 mmHg 30%
    17:00 +26°C° 0 mm 3 m/s 649 mmHg 30%
    18:00 +24°C° 0 mm 2 m/s 649 mmHg 35%
    19:00 +21°C° 0 mm 2 m/s 649 mmHg 41%
    20:00 +19°C° 0 mm 1 m/s 649 mmHg 47%
    21:00 +19°C° 0 mm 1 m/s 650 mmHg 49%
    22:00 +18°C° 0 mm 1 m/s 650 mmHg 51%
    23:00 +18°C° 0 mm 1 m/s 650 mmHg 53%

    24 Octobre, Jeudi

    Heure Température Précipitation Vent Pression Humidité
    00:00 +16°C° 0 mm 1 m/s 650 mmHg 54%
    01:00 +16°C° 0 mm 1 m/s 650 mmHg 55%
    02:00 +16°C° 0 mm 1 m/s 650 mmHg 56%
    03:00 +15°C° 0 mm 1 m/s 650 mmHg 58%
    04:00 +15°C° 0 mm 1 m/s 650 mmHg 59%
    05:00 +15°C° 0 mm 1 m/s 650 mmHg 61%
    06:00 +18°C° 0 mm 1 m/s 651 mmHg 55%
    07:00 +20°C° 0 mm 1 m/s 652 mmHg 49%
    08:00 +22°C° 0 mm 1 m/s 652 mmHg 43%
    09:00 +23°C° 0 mm 2 m/s 652 mmHg 40%
    10:00 +25°C° 0 mm 3 m/s 652 mmHg 37%
    11:00 +26°C° 0 mm 4 m/s 652 mmHg 34%
    12:00 +27°C° 0 mm 4 m/s 651 mmHg 33%
    13:00 +28°C° 0 mm 4 m/s 650 mmHg 32%
    14:00 +28°C° 0 mm 4 m/s 649 mmHg 30%
    15:00 +28°C° 0 mm 4 m/s 649 mmHg 31%
    16:00 +28°C° 0 mm 4 m/s 649 mmHg 31%
    17:00 +27°C° 0 mm 4 m/s 648 mmHg 32%
    18:00 +25°C° 0 mm 3 m/s 648 mmHg 38%
    19:00 +23°C° 0 mm 2 m/s 648 mmHg 44%
    20:00 +21°C° 0 mm 1 m/s 649 mmHg 50%
    21:00 +21°C° 0 mm 1 m/s 649 mmHg 51%
    22:00 +20°C° 0 mm 1 m/s 649 mmHg 52%
    23:00 +20°C° 0 mm 1 m/s 650 mmHg 53%
    Voir plus